Regional Weather Roundup
Issued by NWS

Home | Current Version | Previous Version | Graphics & Text | Print | Product List | Glossary On
Versions: 1 2 3 4 5 6 7 8 9 10 11 12 13 14 15 16 17 18 19 20 21 22 23 24 25 26 27 28 29 30 31 32 33 34 35 36 37 38 39 40 41 42 43 44 45 46 47 48 49 50
000
ASUS43 KIND 151859
RWRIN

WEATHER ROUNDUP FOR INDIANA
NATIONAL WEATHER SERVICE INDIANAPOLIS IN
200 PM EST MON JAN 15 2018

NOTE: "FAIR" INDICATES FEW OR NO CLOUDS BELOW 12,000 FEET WITH NO
SIGNIFICANT WEATHER AND/OR OBSTRUCTIONS TO VISIBILITY.

* - STATION DOES NOT REPORT WEATHER SUCH AS PRECIPITATION OR FOG.

+ - STATION NOT QUALITY CONTROLLED BY THE NATIONAL WEATHER SERVICE.
    USE DATA WITH CAUTION...ESPECIALLY DEWPOINT AND RELATIVE
    HUMIDITY OBSERVATIONS.

INZ001>003-010>013-019-020-152000-
NORTHWEST INDIANA

CITY           SKY/WX    TMP DP  RH WIND       PRES   REMARKS
GARY /AIRPORT/ LGT SNOW  27  21  80 SW8G24    30.14F WCI  18
KNOX *+        CLOUDY    23  21  93 SW8       30.15S WCI  14
MONTICELLO +   LGT SNOW  24  21  89 SW10      30.16F WCI  13
VALPARAISO     LGT SNOW  25  19  80 S8        30.13F WCI  16

$$

LMZ046-743>745-152000-
SOUTHERN LAKE MICHIGAN

STATION/POSITION TIME  TEMP    WIND        PRES    WAVE
                       AIR SEA DIR/SP/G            HT
                 (UTC) (F)     (DEG/KT/KT) (MB)    (FT)
BURNS HARBOR     1840   24     190/  8/ 11 1021.0F
MICHIGAN CITY    1830          170/  8/ 10   N/A

$$

INZ004-005-014>016-021>024-152000-
NORTH CENTRAL INDIANA

CITY           SKY/WX    TMP DP  RH WIND       PRES   REMARKS
ELKHART        LGT SNOW  21  18  86 S8        30.15F WCI  12
GOSHEN         LGT SNOW  22  17  81 S8        30.15S WCI  12
PERU/GRISSOM   FLURRIES  23  23  99 SW13      30.15F WCI  11
SOUTH BEND     LGT SNOW  21  16  81 S8        30.15S WCI  11

$$

INZ006>009-017-018-025>027-152000-
NORTHEAST INDIANA

CITY           SKY/WX    TMP DP  RH WIND       PRES   REMARKS
FORT WAYNE     LGT SNOW  23  19  85 S14       30.17S FOG     WCI  11
KENDALLVILLE + LGT SNOW  21  17  86 S7        30.14F WCI  12

$$

INZ028-029-035-036-043>045-051>053-152000-
WEST CENTRAL INDIANA

CITY           SKY/WX    TMP DP  RH WIND       PRES   REMARKS
LAFAYETTE      LGT SNOW  21  18  88 W16       30.19R FOG     WCI   7
TERRE HAUTE    CLOUDY    26  20  77 NW9       30.23S WCI  17

$$

INZ030>032-037>040-046>048-054>057-064-065-152000-
CENTRAL INDIANA

CITY           SKY/WX    TMP DP  RH WIND       PRES   REMARKS
COLUMBUS       LGT SNOW  27  21  80 SW10      30.22S FOG     WCI  17
GREENWOOD *+   CLOUDY    26  22  86 W6        30.20F WCI  19
INDIANAPOLIS   CLOUDY    24  22  91 SW14      30.19F FOG     WCI  12
-EAGLE CREEK   CLOUDY    23  21  92 VRB7      30.18F FOG     WCI  15
KOKOMO +       MIX PCPN  23  21  92 SW12      30.17F FOG     WCI  12
MT COMFORT *+  CLOUDY    23  23 100 SW12      30.19  WCI  12
SHELBYVILLE    CLOUDY    26  20  77 SW9       30.19F WCI  17

$$

INZ033-034-041-042-049-050-058-059-152000-
EAST CENTRAL INDIANA

CITY           SKY/WX    TMP DP  RH WIND       PRES   REMARKS
MUNCIE         CLOUDY    25  18  74 SW13      30.17S WCI  14
RICHMOND +     LGT SNOW  23  23 100 SW10      30.18S WCI  12

$$

INZ060-061-067>069-081>083-085>088-152000-
SOUTHWEST INDIANA

CITY           SKY/WX    TMP DP  RH WIND       PRES   REMARKS
EVANSVILLE     LGT SNOW  28  27  96 W12       30.30S VSB 3/4 WCI  18
HUNTINGBURG +  LGT SNOW  29  25  85 SW8       30.27F VSB 1   WCI  21

$$

INZ062-063-066-070>080-084-089>092-152000-
SOUTH CENTRAL AND SOUTHEAST INDIANA

CITY           SKY/WX    TMP DP  RH WIND       PRES   REMARKS
BLOOMINGTON    CLOUDY    25  21  85 W8        30.21S WCI  16
MADISON *+     CLOUDY    30  27  86 SW7       30.24F WCI  23
SEYMOUR +      LGT SNOW  28  25  86 SW10      30.23  WCI  19

$$




USA.gov is the U.S. government's official web portal to all federal, state and local government web resources and services.